Location: R�o Tuerlos
(40.6704°N, 4.4622°W)
Time: 21:46:52
(UTC+00:00)

Cosmos 1743 Rocket - Pass Details

Date: 07 June 2020
Orbit: 604 x 633 km, 82.6° (Epoch: 07 July)

Event Time Altitude Azimuth Distance (km) Brightness Sun altitude
Rises 03:48:50 0° 175° (S) 2,887 6.6 -9.7°
Reaches altitude 10° 03:51:05 10° 170° (S) 1,981 5.9 -9.4°
Maximum altitude 03:55:21 53° 94° (E) 759 4.3 -8.8°
Drops below altitude 10° 03:59:37 10° 17° (NNE) 1,978 7.1 -8.1°
Sets 04:01:52 0° 13° (NNE) 2,883 7.9 -7.8°
